KB3YCK-2 Weather Reports


time (UTC)temp
C
wind
direction
speed
KPH
gust
KPH
rain 1hr
cm
rain 24hr
cm
rain mn
cm
humidity
%
barometer
mb
20260505040503 13 34 0.0 1.6 0.00 0.00 0.00 77 1010.9
20260505040012 13 51 0.0 1.6 0.00 0.00 0.00 77 1010.8
20260505035507 13 9 0.0 6.4 0.00 0.00 0.00 77 1010.9
20260505035003 13 93 0.0 6.4 0.00 0.00 0.00 77 1010.9
20260505034508 13 9 0.0 4.8 0.00 0.00 0.00 77 1010.9
20260505034008 13 9 0.0 4.8 0.00 0.00 0.00 77 1010.8
20260505033516 14 9 0.0 6.4 0.00 0.00 0.00 76 1010.9
20260505033002 14 93 1.6 6.4 0.00 0.00 0.00 77 1011.0
20260505032502 14 137 0.0 4.8 0.00 0.00 0.00 76 1011.0
20260505032008 14 178 1.6 6.4 0.00 0.00 0.00 76 1011.1
20260505031503 14 309 0.0 11.3 0.00 0.00 0.00 76 1011.0
20260505031003 14 93 1.6 11.3 0.00 0.00 0.00 76 1011.1
20260505030506 14 247 0.0 6.4 0.00 0.00 0.00 76 1011.1
20260505030020 14 93 0.0 6.4 0.00 0.00 0.00 76 1011.1
20260505025503 14 132 1.6 6.4 0.00 0.00 0.00 75 1011.1
20260505025004 14 265 0.0 4.8 0.00 0.00 0.00 76 1011.0
20260505024516 14 284 0.0 4.8 0.00 0.00 0.00 75 1011.0
20260505024008 14 153 1.6 8.0 0.00 0.00 0.00 75 1010.9
20260505023504 14 51 0.0 8.0 0.00 0.00 0.00 75 1010.9
20260505023008 14 9 1.6 3.2 0.00 0.00 0.00 75 1011.0
20260505022506 14 93 0.0 1.6 0.00 0.00 0.00 75 1011.0
20260505022004 15 137 0.0 1.6 0.00 0.00 0.00 74 1011.1
20260505021508 15 51 0.0 1.6 0.00 0.00 0.00 74 1011.2
20260505021003 15 178 0.0 1.6 0.00 0.00 0.00 74 1011.2
20260505020507 15 51 0.0 3.2 0.00 0.00 0.00 73 1011.3
20260505020004 15 51 0.0 3.2 0.00 0.00 0.00 73 1011.2
20260505015507 15 196 0.0 3.2 0.00 0.00 0.00 73 1011.2
20260505015010 15 9 0.0 4.8 0.00 0.00 0.00 72 1011.2
20260505014522 15 309 0.0 4.8 0.00 0.00 0.00 72 1011.2
20260505014004 15 93 0.0 3.2 0.00 0.00 0.00 72 1011.0
20260505013505 15 51 0.0 3.2 0.00 0.00 0.00 71 1010.9
20260505013018 15 51 0.0 4.8 0.00 0.00 0.00 71 1010.9
20260505012508 16 9 0.0 4.8 0.00 0.00 0.00 71 1010.8
20260505012006 16 93 1.6 3.2 0.00 0.00 0.00 70 1010.8
20260505011537 16 265 0.0 3.2 0.00 0.00 0.00 70 1010.7
20260505011010 16 93 0.0 6.4 0.00 0.00 0.00 69 1010.6
20260505010503 16 51 0.0 6.4 0.00 0.00 0.00 69 1010.6
20260505010016 16 68 0.0 4.8 0.00 0.00 0.00 69 1010.6
20260505005511 16 178 0.0 4.8 0.00 0.00 0.00 68 1010.6
20260505005010 16 93 0.0 6.4 0.00 0.00 0.00 68 1010.5
20260505004503 17 292 1.6 6.4 0.00 0.00 0.00 68 1010.4
20260505004009 17 9 0.0 4.8 0.00 0.00 0.00 67 1010.4
20260505003509 17 265 0.0 8.0 0.00 0.00 0.00 67 1010.4
20260505003026 17 205 1.6 8.0 0.00 0.00 0.00 66 1010.4
20260505002507 17 205 1.6 6.4 0.00 0.00 0.00 67 1010.4
20260505002011 18 9 0.0 4.8 0.00 0.00 0.00 66 1010.3
20260505001524 18 120 1.6 4.8 0.00 0.00 0.00 66 1010.3
20260505001005 18 178 0.0 3.2 0.00 0.00 0.00 65 1010.3
20260505000505 18 239 0.0 3.2 0.00 0.00 0.00 64 1010.3
20260505000003 18 68 0.0 4.8 0.00 0.00 0.00 64 1010.2
20260504235503 19 93 0.0 4.8 0.00 0.00 0.00 63 1010.2
20260504235007 19 26 0.0 19.3 0.00 0.00 0.00 63 1010.1
20260504234504 19 146 1.6 19.3 0.00 0.00 0.00 63 1010.2
20260504234003 20 237 3.2 19.3 0.00 0.00 0.00 62 1010.2
20260504233503 20 160 1.6 9.7 0.00 0.00 0.00 61 1010.2
20260504233012 20 265 1.6 11.3 0.00 0.00 0.00 61 1010.2
20260504232503 20 51 1.6 14.5 0.00 0.00 0.00 61 1010.3
20260504232004 20 265 1.6 14.5 0.00 0.00 0.00 60 1010.3
20260504231509 20 227 0.0 12.9 0.00 0.00 0.00 60 1010.3
20260504231003 21 51 1.6 17.7 0.00 0.00 0.00 60 1010.3
20260504230503 21 334 3.2 17.7 0.00 0.00 0.00 59 1010.3
20260504230006 21 93 1.6 16.1 0.00 0.00 0.00 58 1010.3
20260504225505 21 265 3.2 17.7 0.00 0.00 0.00 59 1010.3
20260504225003 21 9 6.4 17.7 0.00 0.00 0.00 58 1010.2
20260504224510 21 325 3.2 17.7 0.00 0.00 0.00 59 1010.2
20260504224004 21 190 4.8 17.7 0.00 0.00 0.00 59 1010.2
20260504223504 21 178 3.2 17.7 0.00 0.00 0.00 58 1010.2
20260504223003 21 93 3.2 12.9 0.00 0.00 0.00 59 1010.2
20260504222504 21 265 1.6 27.4 0.00 0.00 0.00 59 1010.2
20260504222005 21 360 4.8 27.4 0.00 0.00 0.00 57 1010.2
20260504221504 21 275 1.6 19.3 0.00 0.00 0.00 58 1010.2
20260504221006 21 296 4.8 19.3 0.00 0.00 0.00 57 1010.2
20260504220511 22 68 6.4 19.3 0.00 0.00 0.00 57 1010.2
20260504220016 22 265 4.8 25.7 0.00 0.00 0.00 58 1010.1
20260504215505 22 150 3.2 25.7 0.00 0.00 0.00 58 1010.2
20260504215004 22 246 6.4 20.9 0.00 0.00 0.00 57 1010.3
20260504214510 22 132 6.4 22.5 0.00 0.00 0.00 56 1010.4
20260504214007 22 105 6.4 22.5 0.00 0.00 0.00 56 1010.3
20260504213503 22 232 4.8 20.9 0.00 0.00 0.00 57 1010.4
20260504212509 22 257 3.2 30.6 0.00 0.00 0.00 57 1010.3
20260504212004 22 298 6.4 30.6 0.00 0.00 0.00 55 1010.3
20260504211503 22 255 8.0 30.6 0.00 0.00 0.00 55 1010.4
20260504211007 22 158 6.4 27.4 0.00 0.00 0.00 57 1010.4
20260504210507 22 174 8.0 24.1 0.00 0.00 0.00 56 1010.3
20260504210003 22 148 8.0 25.7 0.00 0.00 0.00 56 1010.3
20260504205504 22 291 4.8 25.7 0.00 0.00 0.00 56 1010.4
20260504205003 22 313 8.0 24.1 0.00 0.00 0.00 56 1010.3
20260504204524 22 93 3.2 20.9 0.00 0.00 0.00 55 1010.3
20260504204004 22 314 6.4 24.1 0.00 0.00 0.00 58 1010.4
20260504203504 22 111 6.4 24.1 0.00 0.00 0.00 56 1010.3
20260504203012 22 261 6.4 17.7 0.00 0.00 0.00 58 1010.4
20260504202509 22 275 4.8 24.1 0.00 0.00 0.00 60 1010.5
20260504202003 22 183 6.4 25.7 0.00 0.00 0.00 56 1010.5
20260504201508 22 271 9.7 27.4 0.00 0.00 0.00 58 1010.8
20260504201008 22 221 8.0 27.4 0.00 0.00 0.00 59 1010.8
20260504200504 22 249 11.3 17.7 0.00 0.00 0.00 59 1011.1
20260504200007 22 146 11.3 24.1 0.00 0.00 0.00 59 1011.0
20260504195507 22 243 6.4 27.4 0.00 0.00 0.00 57 1011.0
20260504195008 22 275 9.7 27.4 0.00 0.00 0.00 56 1011.2
20260504194504 22 68 6.4 19.3 0.00 0.00 0.00 60 1011.2
20260504194005 22 360 4.8 19.3 0.00 0.00 0.00 60 1011.4
20260504193506 21 101 6.4 19.3 0.00 0.00 0.00 58 1011.4
20260504193026 21 221 4.8 19.3 0.00 0.00 0.00 57 1011.5
20260504192506 21 133 6.4 30.6 0.00 0.00 0.00 58 1011.5
20260504192010 21 201 11.3 30.6 0.00 0.00 0.00 58 1011.6
20260504191527 21 254 8.0 24.1 0.00 0.00 0.00 57 1011.7
20260504191002 22 225 6.4 25.7 0.00 0.00 0.00 62 1011.8
20260504190503 21 57 4.8 25.7 0.00 0.00 0.00 60 1011.8
20260504190011 21 117 4.8 27.4 0.00 0.00 0.00 63 1011.8
20260504185510 21 150 4.8 27.4 0.00 0.00 0.00 60 1011.8
20260504185003 21 186 6.4 29.0 0.00 0.00 0.00 59 1011.8
20260504184509 21 160 11.3 29.0 0.00 0.00 0.00 58 1011.9
20260504184011 21 137 4.8 24.1 0.00 0.00 0.00 59 1011.9
20260504183511 21 210 4.8 19.3 0.00 0.00 0.00 60 1011.9
20260504183008 21 153 4.8 20.9 0.00 0.00 0.00 60 1011.9
20260504182508 21 185 6.4 20.9 0.00 0.00 0.00 59 1011.9
20260504182011 21 265 8.0 20.9 0.00 0.00 0.00 59 1012.1
20260504181508 21 51 3.2 22.5 0.00 0.00 0.00 61 1012.3
20260504181001 21 265 8.0 22.5 0.00 0.00 0.00 57 1012.2
20260504180503 21 330 4.8 19.3 0.00 0.00 0.00 59 1012.4
20260504180008 21 214 6.4 19.3 0.00 0.00 0.00 62 1012.5
20260504175504 21 250 3.2 27.4 0.00 0.00 0.00 64 1012.6
20260504175005 21 259 6.4 27.4 0.00 0.00 0.00 65 1012.5
20260504174508 21 239 3.2 19.3 0.00 0.00 0.00 61 1012.7
20260504174006 21 248 4.8 19.3 0.00 0.00 0.00 60 1012.8
20260504173509 20 293 4.8 24.1 0.00 0.00 0.00 68 1012.8
20260504173005 20 254 8.0 25.7 0.00 0.00 0.00 60 1012.9
20260504172502 21 265 6.4 25.7 0.00 0.00 0.00 63 1013.0
20260504172010 20 266 3.2 24.1 0.00 0.00 0.00 63 1012.9
20260504171501 20 254 6.4 24.1 0.00 0.00 0.00 59 1013.0
20260504171003 20 178 6.4 24.1 0.00 0.00 0.00 63 1013.2
20260504170503 20 120 8.0 24.1 0.00 0.00 0.00 63 1013.3
20260504151013 18 305 9.7 22.5 0.00 0.00 0.00 63 1014.3
20260504150503 18 312 6.4 27.4 0.00 0.00 0.00 65 1014.3
20260504141010 16 265 6.4 22.5 0.00 0.00 0.00 73 1014.5
20260504140510 16 265 8.0 22.5 0.00 0.00 0.00 72 1014.5
20260504130512 12 257 4.8 16.1 0.00 0.00 0.00 81 1014.9
20260504110503 3 9 0.0 1.6 0.00 0.00 0.00 88 1015.0
20260504100503 4 51 0.0 1.6 0.00 0.00 0.00 86 1015.3
20260504081005 4 9 0.0 4.8 0.00 0.00 0.00 83 1015.4
20260504080502 4 9 0.0 6.4 0.00 0.00 0.00 83 1015.3
20260504050510 6 51 0.0 4.8 0.00 0.00 0.00 75 1015.4
20260504050010 6 250 1.6 4.8 0.00 0.00 0.00 75 1015.3
20260504045507 6 265 0.0 4.8 0.00 0.00 0.00 75 1015.4
20260504045009 6 250 1.6 4.8 0.00 0.00 0.00 75 1015.4
20260504041002 6 265 0.0 4.8 0.00 0.00 0.00 75 1015.0